• In Italy
  • List of Countries
  • For 7 days
  • Water Temperature
  • Satellite Maps
  • Weather Map
  • Weather Widgets
  • user-avatar
    Login

    Hourly Weather Vanadzor

    Today, 17 October, Tuesday

    Time Temperature Precipitation Wind Pressure Humidity
    00:00 0°C° 0 mm 3 mps 633 mmHg 69%
    01:00 0°C° 0 mm 3 mps 633 mmHg 69%
    02:00 0°C° 0 mm 3 mps 633 mmHg 69%
    03:00 -1°C° 0 mm 6 mps 633 mmHg 66%
    04:00 0°C° 0 mm 5 mps 633 mmHg 68%
    05:00 0°C° 0 mm 4 mps 634 mmHg 69%
    06:00 0°C° 0 mm 3 mps 634 mmHg 70%
    07:00 +2°C° 0 mm 3 mps 635 mmHg 65%
    08:00 +4°C° 0 mm 4 mps 636 mmHg 59%
    09:00 +5°C° 0 mm 4 mps 636 mmHg 54%
    10:00 +6°C° 0 mm 5 mps 637 mmHg 52%
    11:00 +7°C° 0 mm 5 mps 637 mmHg 50%
    12:00 +8°C° 0 mm 5 mps 637 mmHg 48%
    13:00 +9°C° 0 mm 5 mps 637 mmHg 48%
    14:00 +9°C° 0 mm 5 mps 637 mmHg 47%
    15:00 +10°C° 0 mm 5 mps 637 mmHg 47%
    16:00 +8°C° 0 mm 4 mps 637 mmHg 54%
    17:00 +7°C° 0 mm 3 mps 637 mmHg 60%
    18:00 +6°C° 0 mm 2 mps 637 mmHg 66%
    19:00 +5°C° 0 mm 2 mps 637 mmHg 68%
    20:00 +5°C° 0 mm 2 mps 637 mmHg 70%
    21:00 +5°C° 0 mm 2 mps 637 mmHg 72%
    22:00 +5°C° 0 mm 2 mps 637 mmHg 73%
    23:00 +4°C° 0 mm 2 mps 637 mmHg 74%

    Tomorrow, 18 October, Wednesday

    Time Temperature Precipitation Wind Pressure Humidity
    00:00 +4°C° 0 mm 2 mps 637 mmHg 75%
    01:00 +4°C° 0 mm 2 mps 637 mmHg 76%
    02:00 +4°C° 0 mm 2 mps 637 mmHg 76%
    03:00 +4°C° 0 mm 2 mps 637 mmHg 77%
    04:00 +4°C° 0 mm 2 mps 637 mmHg 77%
    05:00 +4°C° 0 mm 2 mps 637 mmHg 77%
    06:00 +4°C° 0 mm 2 mps 637 mmHg 78%
    07:00 +7°C° 0 mm 1 mps 638 mmHg 70%
    08:00 +9°C° 0 mm 1 mps 639 mmHg 63%
    09:00 +11°C° 0 mm 1 mps 640 mmHg 55%
    10:00 +12°C° 0 mm 1 mps 640 mmHg 51%
    11:00 +13°C° 0 mm 1 mps 640 mmHg 48%
    12:00 +15°C° 0 mm 2 mps 640 mmHg 44%
    13:00 +15°C° 0 mm 2 mps 640 mmHg 45%
    14:00 +15°C° 0 mm 2 mps 640 mmHg 45%
    15:00 +15°C° 0 mm 2 mps 640 mmHg 46%
    16:00 +13°C° 0 mm 2 mps 639 mmHg 55%
    17:00 +11°C° 0 mm 1 mps 639 mmHg 63%
    18:00 +9°C° 0 mm 1 mps 639 mmHg 72%
    19:00 +9°C° 0 mm 1 mps 639 mmHg 76%
    20:00 +8°C° 0 mm 1 mps 639 mmHg 80%
    21:00 +8°C° 0 mm 1 mps 639 mmHg 84%
    22:00 +7°C° 0 mm 1 mps 639 mmHg 86%
    23:00 +7°C° 0 mm 1 mps 639 mmHg 88%

    Day after tomorrow, 19 October, Thursday

    Time Temperature Precipitation Wind Pressure Humidity
    00:00 +6°C° 0 mm 1 mps 639 mmHg 90%
    01:00 +6°C° 0 mm 1 mps 639 mmHg 91%
    02:00 +6°C° 0 mm 1 mps 639 mmHg 91%
    03:00 +5°C° 0 mm 1 mps 639 mmHg 92%
    04:00 +5°C° 0 mm 1 mps 639 mmHg 92%
    05:00 +5°C° 0 mm 1 mps 638 mmHg 91%
    06:00 +5°C° 0 mm 1 mps 638 mmHg 91%
    07:00 +7°C° 0 mm 1 mps 639 mmHg 82%
    08:00 +9°C° 0 mm 1 mps 640 mmHg 72%
    09:00 +11°C° 0 mm 1 mps 640 mmHg 63%
    10:00 +12°C° 0 mm 1 mps 640 mmHg 57%
    11:00 +13°C° 0 mm 2 mps 640 mmHg 51%
    12:00 +14°C° 0 mm 2 mps 640 mmHg 46%
    13:00 +15°C° 0 mm 2 mps 640 mmHg 46%
    14:00 +15°C° 0 mm 2 mps 640 mmHg 46%
    15:00 +15°C° 0 mm 2 mps 639 mmHg 46%
    16:00 +13°C° 0 mm 1 mps 639 mmHg 54%
    17:00 +11°C° 0 mm 1 mps 638 mmHg 62%
    18:00 +8°C° 0 mm 0 mps 638 mmHg 70%
    19:00 +8°C° 0 mm 0 mps 638 mmHg 72%
    20:00 +7°C° 0 mm 0 mps 638 mmHg 74%
    21:00 +7°C° 0 mm 0 mps 638 mmHg 76%
    22:00 +7°C° 0 mm 0 mps 638 mmHg 76%
    23:00 +8°C° 0 mm 1 mps 637 mmHg 75%

    20 October, Friday

    Time Temperature Precipitation Wind Pressure Humidity
    00:00 +7°C° 0 mm 1 mps 637 mmHg 75%
    01:00 +7°C° 0 mm 1 mps 637 mmHg 72%
    02:00 +7°C° 0 mm 1 mps 637 mmHg 69%
    03:00 +7°C° 0 mm 1 mps 637 mmHg 67%
    04:00 +7°C° 0 mm 1 mps 636 mmHg 64%
    05:00 +7°C° 0 mm 1 mps 636 mmHg 60%
    06:00 +7°C° 0 mm 1 mps 636 mmHg 57%
    07:00 +9°C° 0 mm 1 mps 637 mmHg 51%
    08:00 +11°C° 0 mm 1 mps 637 mmHg 45%
    09:00 +13°C° 0 mm 1 mps 638 mmHg 38%
    10:00 +14°C° 0 mm 1 mps 638 mmHg 37%
    11:00 +15°C° 0 mm 1 mps 638 mmHg 35%
    12:00 +16°C° 0 mm 2 mps 638 mmHg 33%
    13:00 +16°C° 0 mm 2 mps 638 mmHg 33%
    14:00 +16°C° 0 mm 1 mps 638 mmHg 34%
    15:00 +16°C° 0 mm 1 mps 638 mmHg 35%
    16:00 +14°C° 0 mm 1 mps 637 mmHg 41%
    17:00 +12°C° 0 mm 1 mps 637 mmHg 48%
    18:00 +9°C° 0 mm 0 mps 636 mmHg 55%
    19:00 +10°C° 0 mm 1 mps 637 mmHg 56%
    20:00 +10°C° 0 mm 1 mps 637 mmHg 58%
    21:00 +9°C° 0 mm 1 mps 637 mmHg 59%
    22:00 +9°C° 0 mm 1 mps 637 mmHg 61%
    23:00 +9°C° 0 mm 1 mps 637 mmHg 62%

    21 October, Saturday

    Time Temperature Precipitation Wind Pressure Humidity
    00:00 +8°C° 0 mm 1 mps 637 mmHg 64%
    01:00 +8°C° 0 mm 1 mps 637 mmHg 65%
    02:00 +8°C° 0 mm 1 mps 636 mmHg 66%
    03:00 +7°C° 0 mm 1 mps 636 mmHg 67%
    04:00 +7°C° 0 mm 1 mps 636 mmHg 68%
    05:00 +7°C° 0 mm 1 mps 636 mmHg 68%
    06:00 +7°C° 0 mm 1 mps 636 mmHg 69%
    07:00 +9°C° 0 mm 1 mps 637 mmHg 62%
    08:00 +11°C° 0 mm 1 mps 638 mmHg 54%
    09:00 +13°C° 0 mm 1 mps 639 mmHg 47%
    10:00 +14°C° 0 mm 1 mps 639 mmHg 43%
    11:00 +15°C° 0 mm 1 mps 639 mmHg 39%
    12:00 +16°C° 0 mm 1 mps 639 mmHg 35%
    13:00 +16°C° 0 mm 1 mps 638 mmHg 35%
    14:00 +16°C° 0 mm 1 mps 638 mmHg 36%
    15:00 +16°C° 0 mm 1 mps 638 mmHg 36%
    16:00 +14°C° 0 mm 1 mps 638 mmHg 43%
    17:00 +12°C° 0 mm 1 mps 637 mmHg 49%
    18:00 +9°C° 0 mm 0 mps 637 mmHg 56%
    19:00 +9°C° 0 mm 0 mps 637 mmHg 59%
    20:00 +9°C° 0 mm 1 mps 637 mmHg 62%
    21:00 +9°C° 0 mm 1 mps 637 mmHg 64%
    22:00 +8°C° 0 mm 0 mps 637 mmHg 66%
    23:00 +7°C° 0 mm 0 mps 637 mmHg 68%

    22 October, Sunday

    Time Temperature Precipitation Wind Pressure Humidity
    00:00 +7°C° 0 mm 0 mps 636 mmHg 69%
    01:00 +6°C° 0 mm 0 mps 636 mmHg 70%
    02:00 +6°C° 0 mm 0 mps 636 mmHg 71%
    03:00 +6°C° 0 mm 0 mps 636 mmHg 72%
    04:00 +6°C° 0 mm 1 mps 636 mmHg 71%
    05:00 +6°C° 0 mm 1 mps 635 mmHg 69%
    06:00 +6°C° 0 mm 1 mps 635 mmHg 68%
    07:00 +8°C° 0 mm 1 mps 636 mmHg 59%
    08:00 +10°C° 0 mm 1 mps 636 mmHg 50%
    09:00 +12°C° 0 mm 1 mps 637 mmHg 41%
    10:00 +13°C° 0 mm 2 mps 637 mmHg 38%
    11:00 +14°C° 0 mm 2 mps 636 mmHg 36%
    12:00 +15°C° 0 mm 2 mps 636 mmHg 33%
    13:00 +15°C° 0 mm 2 mps 636 mmHg 33%
    14:00 +15°C° 0 mm 2 mps 635 mmHg 34%
    15:00 +15°C° 0 mm 2 mps 635 mmHg 34%
    16:00 +13°C° 0 mm 1 mps 635 mmHg 41%
    17:00 +12°C° 0 mm 1 mps 634 mmHg 48%
    18:00 +9°C° 0 mm 0 mps 634 mmHg 55%
    19:00 +9°C° 0 mm 1 mps 634 mmHg 55%
    20:00 +9°C° 0 mm 1 mps 634 mmHg 55%
    21:00 +9°C° 0 mm 1 mps 634 mmHg 55%
    22:00 +8°C° 0 mm 1 mps 634 mmHg 55%
    23:00 +7°C° 0 mm 2 mps 634 mmHg 55%
    Show more